Change the Weather History Date:

Friday, July 5, 2013

  Actual Average Record
Temperature  
Mean Temperature 56 °F -  
Max Temperature 64 °F 69 °F 84 °F (2004)
Min Temperature 48 °F 50 °F 39 °F (2002)
Degree Days  
Heating Degree Days 9    
Growing Degree Days 6 (Base 50)    
Moisture  
Dew Point 40 °F    
Average Humidity 55    
Maximum Humidity 83    
Minimum Humidity 24    
Precipitation  
Precipitation 0.01 in - - ()
Sea Level Pressure  
Sea Level Pressure 30.04 in    
Wind  
Wind Speed 6 mph (WSW)    
Max Wind Speed 16 mph    
Max Gust Speed 24 mph    
Visibility 10 miles    
Events Rain    
Averages and records for this station are not official NWS values.
T = Trace of Precipitation, MM = Missing Value Source: NWS Daily Summary

Daily Weather History Graph

Daily Weather History Graph

Search for Another Location

Airport or City:

Trip Planner

Search our weather history database for the weather conditions in past years. The results will help you decide how hot, cold, wet, or windy it might be!

Date:

Astronomy

Jul. 05, 2013 Rise Set
Actual Time 3:33 AM AKDT 11:59 PM AKDT
Civil Twilight Sun does not rise Sun does not rise
Nautical Twilight Sun does not rise Sun does not rise
Astronomical Twilight Sun does not rise Sun does not rise
Moon 2:21 AM AKDT (7/5) 9:24 PM AKDT (7/5)
Length of Visible Light 24h 00m
Length of Day
20h 26m
Waning Crescent, 5% of the Moon is Illuminated
Jul 5
Waning Crescent
Jul 7
New
Jul 15
First Quarter
Jul 22
Full
Jul 29
Last Quarter

Hourly Weather History & Observations

Time (AKDT) Temp. Dew Point Humidity Pressure Visibility Wind Dir Wind Speed Gust Speed Precip Events Conditions
12:53 AM 52.0 °F 44.1 °F 74% 30.05 in 10.0 mi West 6.9 mph - N/A   Scattered Clouds
1:53 AM 50.0 °F 44.1 °F 80% 30.06 in 10.0 mi WNW 5.8 mph - N/A   Scattered Clouds
2:53 AM 48.0 °F 43.0 °F 83% 30.08 in 10.0 mi SW 6.9 mph - N/A   Overcast
3:53 AM 48.0 °F 42.1 °F 80% 30.08 in 10.0 mi West 6.9 mph - N/A   Overcast
4:53 AM 48.0 °F 42.1 °F 80% 30.09 in 10.0 mi West 3.5 mph - N/A   Overcast
5:53 AM 48.9 °F 42.1 °F 77% 30.09 in 10.0 mi WSW 3.5 mph - 0.00 in Rain Light Rain
6:53 AM 50.0 °F 42.1 °F 74% 30.08 in 10.0 mi Calm Calm - 0.00 in   Mostly Cloudy
7:53 AM 53.1 °F 41.0 °F 64% 30.08 in 10.0 mi Calm Calm - N/A   Mostly Cloudy
8:53 AM 55.0 °F 39.9 °F 57% 30.07 in 10.0 mi SE 4.6 mph - N/A   Mostly Cloudy
9:53 AM 55.0 °F 41.0 °F 59% 30.07 in 10.0 mi ESE 8.1 mph - N/A   Mostly Cloudy
10:53 AM 55.9 °F 39.9 °F 55% 30.06 in 10.0 mi SSW 4.6 mph - N/A   Mostly Cloudy
11:53 AM 60.1 °F 37.9 °F 44% 30.04 in 10.0 mi Calm Calm - N/A   Mostly Cloudy
12:53 PM 60.1 °F 39.9 °F 47% 30.04 in 10.0 mi Calm Calm - N/A   Mostly Cloudy
1:53 PM 60.1 °F 44.1 °F 55% 30.04 in 9.0 mi SE 5.8 mph - 0.01 in Rain Light Rain
2:53 PM 64.0 °F 39.0 °F 40% 30.02 in 10.0 mi Variable 5.8 mph - 0.00 in   Mostly Cloudy
3:53 PM 64.0 °F 36.0 °F 35% 30.01 in 10.0 mi SW 8.1 mph 17.3 mph N/A   Mostly Cloudy
4:53 PM 64.0 °F 36.0 °F 35% 30.00 in 10.0 mi SSW 10.4 mph - N/A   Mostly Cloudy
5:53 PM 62.1 °F 39.9 °F 44% 30.00 in 10.0 mi West 16.1 mph 24.2 mph N/A   Mostly Cloudy
6:53 PM 61.0 °F 41.0 °F 48% 30.01 in 10.0 mi NW 6.9 mph - N/A   Mostly Cloudy
7:53 PM 62.1 °F 37.9 °F 41% 29.99 in 10.0 mi West 4.6 mph - N/A   Mostly Cloudy
8:53 PM 63.0 °F 37.0 °F 38% 29.99 in 10.0 mi SW 4.6 mph - N/A   Scattered Clouds
9:53 PM 62.1 °F 39.9 °F 44% 29.99 in 10.0 mi NNE 3.5 mph - N/A   Clear
10:53 PM 57.9 °F 37.9 °F 47% 30.00 in 10.0 mi SSW 3.5 mph - N/A   Clear
11:53 PM 55.9 °F 37.9 °F 51% 30.00 in 10.0 mi Calm Calm - N/A   Scattered Clouds